This is the latest recevied weather packets stored in our database for station/object K9ZOG. If no packets are shown the sender has not sent any weather packets the latest 10 day(s).
| Time | Temp. | Humidity | Pressure | Rain* | Wind** | Luminosity | Snow |
|---|---|---|---|---|---|---|---|
| 1777763953 | 10° C | 42% | 1016.6 hPa | 0 mm | - | 154 W/m² | - |
| 1777763652 | 10.56° C | 41% | 1016.7 hPa | 0 mm | - | 162 W/m² | - |
| 1777763352 | 10° C | 43% | 1016.7 hPa | 0 mm | - | 171 W/m² | - |
| 1777763052 | 10.56° C | 42% | 1016.7 hPa | 0 mm | - | 184 W/m² | - |
| 1777762753 | 10.56° C | 40% | 1016.7 hPa | 0 mm | - | 199 W/m² | - |
| 1777762453 | 10.56° C | 41% | 1016.8 hPa | 0 mm | - | 216 W/m² | - |
| 1777762153 | 10.56° C | 39% | 1016.8 hPa | 0 mm | - | 231 W/m² | - |
| 1777761852 | 11.11° C | 39% | 1016.8 hPa | 0 mm | - | 246 W/m² | - |
| 1777761283 | 10.56° C | 39% | 1016.8 hPa | 0 mm | - | 271 W/m² | - |
| 1777760952 | 10.56° C | 42% | 1016.9 hPa | 0 mm | - | 288 W/m² | - |
| 1777760652 | 10.56° C | 40% | 1016.9 hPa | 0 mm | - | 310 W/m² | - |
| 1777760353 | 10.56° C | 40% | 1017 hPa | 0 mm | - | 326 W/m² | - |
| 1777760052 | 10.56° C | 40% | 1016.9 hPa | 0 mm | - | 341 W/m² | - |
| 1777759753 | 11.11° C | 38% | 1016.9 hPa | 0 mm | - | 359 W/m² | - |
| 1777759452 | 11.11° C | 39% | 1016.9 hPa | 0 mm | - | 373 W/m² | - |
| 1777759153 | 10.56° C | 37% | 1017 hPa | 0 mm | - | 391 W/m² | - |
| 1777758852 | 10.56° C | 32% | 1017 hPa | 0 mm | - | 408 W/m² | - |
| 1777758552 | 10.56° C | 34% | 1017 hPa | 0 mm | - | 420 W/m² | - |
| 1777758253 | 10.56° C | 34% | 1017 hPa | 0 mm | - | 440 W/m² | - |
| 1777757953 | 10.56° C | 36% | 1017 hPa | 0 mm | - | 453 W/m² | - |
| 1777757652 | 10° C | 35% | 1017 hPa | 0 mm | - | 471 W/m² | - |
| 1777757354 | 10° C | 38% | 1017 hPa | 0 mm | - | 490 W/m² | - |
| 1777757052 | 10° C | 37% | 1017 hPa | 0 mm | - | 507 W/m² | - |
| 1777756753 | 10° C | 38% | 1017 hPa | 0 mm | - | 350 W/m² | - |
| 1777756453 | 10° C | 38% | 1017.2 hPa | 0 mm | - | 535 W/m² | - |
* Rain latest hour (hover to see other rain measurements)
** Current wind speed in m/s (hover to see current wind gust speed)